Powrót do katalogu

STARLINK-36788

AktywnyŁącznośćSSO
NORAD 67819·PAYLOAD·🇺🇸 United States

Wystrzelony Feb 15, 2026 z Vandenberg Space Force Base

Loading…

Następne Przeloty (najbliższe 24 godziny)

TLE

ŚwieżeSource: CelesTrak SupGP

Epoka: Sep 15, 2026, 02:58 UTC

1 67819C 26032Y   26258.12409722 -.00047029  00000+0 -14597-2 0  2583
2 67819  97.2858  84.6031 0001669  92.0297 176.1124 15.33466525    18

Śledź STARLINK-36788 w czasie rzeczywistym z AllMySat

Download on the App Store